sat.trackr.live / text

‹ back to catalog

STARLINK-33539

NORAD 63376 · 2025-063P

PAYLOAD ACTIVE UNKNOWN

§ Identity

Operator
Country
US
Launch date
2025-03-26
Launch site
AFWTR
Launch vehicle
Mass (kg)
RCS (m²)

Purposes: comms

External: N2YO · Heavens-Above · Gunter

§ Orbital elements

Epoch: 2026-05-25T01:58:10.235424Z

Period
94.11 min
Inclination
53.1587°
Eccentricity
0.0001179
Mean motion
15.30199046 rev/d
Perigee alt
474.4 km
Apogee alt
476.0 km
Semi-major
6,853.4 km
B*
5.0979e-4
RAAN
67.6801°
Arg perigee
84.6108°
Mean anomaly
275.5027°
Rev number
6,626

§ Raw data

STARLINK-335391 63376U 25063P   26145.08206291  .00014769  00000+0  50979-3 0  99962 63376  53.1587  67.6801 0001179  84.6108 275.5027 15.30199046 66265

JSON: /api/v1/satellites/63376 · /tle

For live sub-satellite position, see the globe view (requires WebGL).

§ Visibility from observer

Set your observer location to see the next 7 days of passes ≥ 10°. The values pass through the URL so the page stays shareable.

No JS? Fill the form by hand. The geolocation button needs JavaScript.